Location: B?lite?ti
(46.2833°N, 22.7333°E)
Time: 04:47:06
(UTC+00:00)

CREW DRAGON DEMO-1 DEB - Pass Details

Date: 24 January 2021
Orbit: 335 x 339 km, 51.6° (Epoch: 26 February)

Event Time Altitude Azimuth Distance (km) Brightness Sun altitude
Rises 15:51:52 0° 297° (WNW) 2,177 7.3 -5.5°
Reaches altitude 10° 15:53:54 10° 300° (WNW) 1,326 6.2 -5.8°
Maximum altitude 15:56:51 70° 25° (NNE) 377 2.7 -6.3°
Drops below altitude 10° 15:59:45 10° 110° (ESE) 1,307 5.1 -6.8°
Enters shadow 16:00:59 - 112° (ESE) 1,813 5.8 -7.0°
